Regional Weather Roundup
Issued by NWS Cleveland, OH

Home | Current Version | Previous Version | Text Only | Print | Product List | Glossary On
Versions: 1 2 3 4 5 6 7 8 9 10 11 12 13 14 15 16 17 18 19 20 21 22 23 24 25 26 27 28 29 30 31 32 33 34 35 36 37 38 39 40 41 42 43 44 45 46 47 48 49 50
000
ASUS41 KCLE 240810
RWRCLE
OHIO REGIONAL WEATHER ROUNDUP
NATIONAL WEATHER SERVICE WILMINGTON, OH
400 AM EDT SUN MAY 24 2015

NOTE: "FAIR" INDICATES FEW OR NO CLOUDS BELOW 12,000 FEET WITH NO
SIGNIFICANT WEATHER AND/OR OBSTRUCTIONS TO VISIBILITY.

OHZ001>008-015>018-024>027-034-035-043-044-240900-
   NORTHWEST OHIO

CITY           SKY/WX    TMP DP  RH WIND       PRES   REMARKS
DEFIANCE       PTCLDY    54  49  83 CALM      30.26R
FINDLAY        PTCLDY    59  45  59 SE6       30.26R
TOLEDO EXPRESS PTCLDY    51  45  79 CALM      30.25S
TOLEDO EXEC    CLEAR     56  43  61 S5        30.26S
LIMA           MOCLDY    58  45  62 S8        30.27R
$$

OHZ009>014-019>023-028>033-038-089-240900-
   NORTHEAST OHIO

CITY           SKY/WX    TMP DP  RH WIND       PRES   REMARKS
CLE-HOPKINS    CLEAR     53  42  66 S5        30.30S
CLE-LAKEFRONT  CLEAR     60  40  47 S12       30.27S
CUY CO. ARPT   NOT AVBL
LORAIN-ELYRIA  CLEAR     54  41  61 S6        30.29R
ASHTABULA      CLEAR     48  41  76 S5        30.31S
AKRON-CANTON   CLEAR     54  39  57 S5        30.31S
WOOSTER        CLEAR     48  41  76 CALM      30.31S
MANSFIELD      CLEAR     55  40  56 S7        30.30S
YOUNGSTOWN     CLEAR     55  37  50 S7        30.31S
$$

OHZ042-051>053-060>062-070>072-077>081-240900-
  SOUTHWEST OHIO

CITY           SKY/WX    TMP DP  RH WIND       PRES   REMARKS
CINC-COVINGTON CLEAR     63  47  55 SE10      30.26F
CINC-LUNKEN    CLEAR     51  50  96 CALM      30.28S
HAMILTON       CLEAR     54  48  80 CALM      30.28S
DAYTON         CLEAR     60  46  59 S7        30.28S
WRIGHT-PAT AFB CLEAR     52  48  88 N2        30.27S
DAYTON GENERAL CLEAR     61  44  53 SE7       30.27S
WILMINGTON     CLEAR     60  42  51 SE6       30.28S
$$

OHZ036-037-039>041-045>050-054>059-063>069-073>076-082>088-240900-
  CENTRAL AND SOUTHEAST OHIO

CITY           SKY/WX    TMP DP  RH WIND       PRES   REMARKS
COLUMBUS       PTCLDY    54  47  77 CALM      30.29R
OSU AIRPORT    PTCLDY    56  43  61 CALM      30.29R
BOLTON FIELD   NOT AVBL
RICKENBACK AFB CLEAR     53  46  78 CALM      30.29R
NEWARK         CLEAR     47  45  93 CALM      30.30R
MARION         CLEAR     53  42  66 S7        30.29S
LANCASTER      CLEAR     50  46  86 S3        30.31R
ZANESVILLE     CLEAR     48  44  86 CALM      30.31R
NEW PHILLY     CLEAR     49  44  83 CALM      30.32S
$$


USA.gov is the U.S. government's official web portal to all federal, state and local government web resources and services.